Temperature
22 22 21 21 21 20 20 20 20 19 19 19 19 19 19 19 19 18 18 18 18 18 18 18 17 17 17 17 17 17 17 17 16 16 16 16 16 16 16 16 15 15 15
22 22 21 21 21 20 20 20 20 19 19 19 19 19 19 18 18 18 18 18 18 18 18 17 17 17 17 17 17 17 17 17 16 16 16 16 16 15 15 15 15 15 15
22 21 21 21 21 20 20 20 20 19 19 19 19 19 19 18 18 18 18 18 18 18 18 17 17 17 17 17 17 17 16 16 16 16 16 16 15 15 15 15 15 15 14
21 21 21 21 20 20 20 19 19 19 19 19 19 19 18 18 18 18 18 18 18 18 17 17 17 17 17 17 17 16 16 16 16 16 16 16 15 15 15 15 15 14 14
21 20 21 21 20 20 20 19 19 19 19 19 18 18 18 18 18 18 18 18 18 17 17 17 17 17 17 17 16 16 16 16 16 16 15 15 15 15 15 15 14 14 14
20 20 20 20 20 20 19 19 19 19 19 18 18 18 18 18 18 18 18 17 17 17 17 17 17 17 16 16 16 16 16 16 16 16 15 15 15 15 15 14 14 14 14
20 20 20 20 19 19 19 19 18 18 18 18 18 18 18 18 18 17 17 17 17 17 17 17 16 16 16 16 16 16 16 16 15 15 15 15 15 15 15 14 14 14 14
20 20 19 19 19 19 18 18 18 18 18 18 18 18 17 17 17 17 17 17 17 17 16 16 16 16 16 16 15 15 15 15 15 15 15 15 15 14 14 14 14 14 13
20 19 19 19 18 18 18 18 18 18 18 18 18 17 17 17 17 17 16 16 16 16 16 16 16 16 16 15 15 15 15 15 15 15 15 15 14 14 14 14 13 13 13
19 19 19 18 18 18 18 18 18 17 17 17 17 17 17 17 17 16 16 16 16 16 16 15 15 15 15 15 15 15 14 15 14 14 14 14 14 14 14 13 13 13 13
18 18 18 18 18 18 17 17 17 17 17 17 17 17 16 16 16 16 16 16 16 15 15 15 15 15 15 15 14 14 14 14 14 14 14 14 13 13 13 13 13 13 12
17 17 17 17 17 17 17 17 17 17 17 16 16 16 16 16 16 16 15 15 15 15 15 15 15 14 14 14 14 14 14 13 13 13 13 13 13 13 13 13 12 12 12
16 16 16 16 16 16 16 16 16 16 16 16 16 16 16 16 15 15 15 15 15 15 15 14 14 14 14 14 14 13 13 13 13 13 13 12 12 12 12 12 12 11 11
15 16 16 16 15 15 16 16 16 15 15 16 15 15 15 15 15 15 14 14 14 14 14 14 14 13 13 13 13 13 13 12 12 12 12 12 12 12 11 11 11 11 11
15 15 15 15 15 15 15 15 15 15 15 15 15 15 15 15 15 14 14 14 14 14 14 13 13 13 13 13 13 12 12 12 12 11 11 11 11 11 11 11 10 10 10
14 14 14 14 14 14 14 14 14 14 14 14 14 14 14 14 14 14 14 14 14 13 13 13 13 12 12 12 12 12 11 11 11 11 11 11 10 10 10 10 10 10 10
14 14 14 14 14 14 14 14 14 14 14 14 14 14 13 13 13 13 13 13 13 13 12 12 12 12 12 11 11 11 11 11 10 10 10 10 10 10 10 9 9 9 9
13 13 13 13 13 13 13 13 13 13 13 13 13 13 13 13 13 13 13 12 12 12 12 12 11 11 11 11 11 10 10 10 10 10 9 9 9 9 9 9 9 9 8
13 12 12 12 12 12 12 12 12 12 12 12 12 12 12 12 12 12 12 12 12 11 11 11 11 11 10 10 10 10 9 9 9 9 9 9 9 8 8 8 8 8 8
12 12 12 12 12 12 12 12 12 12 11 11 11 11 11 11 11 11 11 11 11 11 10 10 10 10 10 10 9 9 9 9 8 8 8 8 8 8 8 8 7 7 7
11 11 11 11 11 11 11 11 11 11 11 11 11 11 11 11 11 10 10 10 10 10 10 10 9 9 9 9 9 9 8 8 8 8 8 7 7 7 7 7 7 7 7
11 11 11 11 11 11 11 11 10 10 10 10 10 10 10 10 10 10 10 10 9 9 9 9 9 9 9 9 8 8 8 8 7 7 7 7 7 7 7 6 6 6 6
10 10 10 10 10 10 10 10 10 10 10 10 10 9 10 10 9 9 9 9 9 9 9 8 8 8 8 8 8 8 7 7 7 7 7 7 6 6 6 6 6 6 6
10 10 10 10 10 10 10 10 9 9 9 9 9 9 9 9 9 9 9 8 8 8 8 8 8 8 8 8 7 7 7 7 7 6 6 6 6 6 6 6 6 6 5
10 10 9 9 9 9 9 9 9 9 9 9 9 9 8 8 8 8 8 8 8 7 7 7 7 7 7 7 7 7 7 6 6 6 6 6 6 6 5 5 5 5 5
9 9 9 9 9 9 9 9 9 9 9 9 8 8 8 8 8 7 7 7 7 7 7 7 7 7 7 6 6 6 6 6 6 6 6 5 5 5 5 5 5 5 5
Wind_Speed
10 9 8 7 7 6 6 7 7 6 6 6 6 6 5 5 5 5 4 4 5 4 4 4 4 3 2 2 2 2 2 3 3 2 1 1 1 2 3 4 4 5 5
10 9 8 7 7 6 7 7 7 6 6 6 6 6 6 5 5 4 5 5 5 5 5 5 5 3 4 3 3 3 2 3 3 3 2 2 3 3 3 3 3 4 5
8 9 8 7 7 7 6 6 6 6 5 5 6 6 5 5 5 5 5 4 5 5 5 5 5 4 4 3 3 3 2 2 2 3 2 2 2 2 2 2 2 1 3
7 7 7 7 7 7 6 6 6 6 6 5 6 6 6 5 5 5 5 4 4 4 4 5 5 5 5 4 3 3 3 2 2 2 2 2 2 2 2 2 2 1 2
5 6 7 7 6 6 6 6 6 6 6 6 5 5 5 5 5 5 5 5 4 4 4 4 5 5 6 5 4 4 4 3 3 3 3 2 2 2 3 3 3 2 2
5 5 5 5 5 6 6 5 5 6 5 5 5 5 5 5 6 7 6 4 4 4 4 4 4 4 5 6 6 7 6 5 5 4 4 4 5 4 3 3 3 2 2
4 4 4 4 5 5 6 5 5 6 5 5 6 5 5 6 7 8 8 5 4 4 4 3 3 3 4 3 4 4 5 6 7 6 5 6 5 6 5 4 4 4 4
2 3 4 4 4 4 5 6 6 5 5 6 6 6 5 5 7 7 8 5 4 4 4 4 4 3 3 4 3 2 3 3 5 5 5 6 6 5 6 6 6 3 1
1 3 3 5 5 5 5 5 5 5 5 5 5 5 5 5 7 8 7 3 3 4 4 3 4 4 5 5 4 3 3 3 2 3 4 3 4 5 6 4 3 3 2
3 3 3 4 5 5 6 5 3 3 4 4 4 4 5 4 5 7 8 4 4 3 3 3 4 4 5 6 4 4 4 3 1 1 0 0 0 1 4 5 5 4 2
3 2 3 3 3 4 4 3 3 3 3 3 2 2 2 3 5 7 8 5 4 4 3 3 3 4 5 6 5 5 5 3 2 2 1 0 0 0 1 2 3 5 4
2 2 2 2 2 2 2 2 3 3 3 3 3 2 1 3 4 5 7 7 5 4 4 3 3 4 4 4 4 3 3 3 2 2 1 1 1 1 2 2 2 3 3
2 2 1 1 1 2 3 2 2 2 3 3 3 3 2 2 2 4 5 5 5 4 2 3 3 3 3 2 3 3 3 2 2 2 2 2 2 2 1 0 0 1 1
2 2 1 1 1 1 1 2 2 2 3 3 3 3 3 2 1 1 2 2 3 2 1 1 1 2 2 2 1 1 1 2 2 2 2 1 0 0 1 1 1 1 1
3 2 1 1 1 1 1 1 2 2 3 4 4 4 4 3 4 5 4 3 3 3 3 1 1 1 1 1 1 1 1 1 1 1 1 1 1 0 0 1 1 1 1
1 1 1 0 1 1 2 1 3 1 1 2 4 4 2 4 4 3 4 4 5 6 5 3 2 2 2 1 1 1 1 1 1 1 1 1 1 1 0 0 1 1 2
1 1 1 1 1 2 2 3 2 2 3 2 0 2 3 3 3 3 3 4 5 8 4 3 2 2 2 2 1 1 1 0 1 1 1 0 0 0 0 0 1 1 2
1 1 1 1 2 2 2 2 3 3 1 1 2 1 2 1 2 2 4 6 4 3 2 3 2 2 2 2 2 1 1 1 2 1 1 0 0 0 0 0 0 1 1
1 1 1 1 1 2 2 2 2 2 2 1 0 1 1 1 2 3 5 4 4 3 2 2 2 2 2 2 2 2 2 2 2 1 1 1 0 0 0 0 0 0 0
1 1 1 1 1 2 2 3 3 3 3 2 2 2 1 1 2 2 2 3 3 3 3 2 2 3 3 3 2 2 2 2 1 1 1 1 1 1 1 1 1 1 1
2 1 1 0 1 2 2 3 3 3 3 3 2 2 4 3 3 3 2 3 3 3 3 3 3 3 3 2 2 3 3 1 1 1 1 1 1 1 1 1 1 1 1
1 1 1 1 1 1 2 2 3 3 3 3 2 2 5 3 3 3 3 3 3 3 3 4 3 3 3 3 3 3 2 1 0 0 0 1 1 1 1 1 1 1 0
0 0 1 1 0 1 1 2 2 3 3 3 3 3 3 3 3 3 3 3 3 3 3 4 4 3 3 3 3 3 3 2 2 2 1 1 1 1 1 1 1 1 1
0 0 0 1 0 1 2 2 2 2 2 2 3 3 3 3 3 3 3 3 4 3 3 4 4 5 5 4 3 3 2 1 1 1 2 2 1 1 0 0 1 1 1
1 1 1 0 0 1 1 1 2 2 3 3 3 3 3 3 3 3 3 4 5 4 4 4 4 5 6 5 4 3 3 3 3 2 2 2 1 1 1 0 0 0 1
3 2 2 1 1 1 1 2 2 2 2 2 3 3 3 3 3 3 4 4 5 4 4 4 5 6 5 4 4 4 4 5 5 4 4 3 2 2 1 1 1 1 1
Wind_Direction
187 187 188 191 194 193 196 199 198 197 192 193 197 194 194 197 193 191 203 199 207 219 222 217 226 214 211 221 198 184 186 173 201 239 225 205 181 185 172 178 183 182 187
186 185 189 189 189 196 203 203 197 195 196 196 192 192 201 206 203 198 215 215 214 221 226 223 228 218 211 214 203 205 202 192 185 216 220 195 201 196 187 181 188 196 196
182 184 186 188 190 198 203 199 194 192 195 195 189 190 196 199 200 206 212 213 217 222 222 219 222 214 226 225 212 210 210 205 181 185 207 198 199 183 168 184 189 202 210
184 183 186 191 192 195 193 189 189 192 193 193 194 194 196 198 200 206 204 207 218 224 224 220 217 214 221 220 215 210 200 196 187 181 194 194 194 181 161 187 209 224 221
178 185 198 196 189 189 192 193 191 191 194 194 193 196 194 194 205 203 203 203 208 220 229 226 223 223 218 208 208 203 195 198 192 192 200 194 200 185 201 193 200 199 229
163 197 202 190 186 192 198 195 191 194 193 190 197 198 199 208 205 197 191 200 203 211 224 230 235 230 225 218 213 204 195 196 200 201 208 211 217 208 192 186 178 177 233
161 176 180 186 194 199 196 193 200 203 196 197 205 204 209 215 206 201 195 190 202 214 219 225 234 231 209 217 219 210 214 211 198 195 209 218 213 206 188 192 195 192 212
168 187 189 184 183 195 194 197 207 206 204 204 204 204 210 219 209 204 195 194 204 217 219 215 216 221 212 200 193 205 228 237 222 210 213 222 220 205 195 197 196 190 208
210 226 212 197 195 195 200 204 209 205 207 208 202 200 204 218 205 195 177 179 206 228 231 221 212 217 221 197 184 207 234 265 251 206 205 213 212 197 180 159 159 160 217
222 239 227 208 199 199 203 204 202 201 209 206 208 203 201 207 198 189 181 180 203 231 242 234 223 221 217 192 188 195 219 243 209 148 174 276 234 167 174 184 184 184 186
260 250 233 219 211 202 194 192 189 194 190 186 188 209 207 205 205 199 189 188 203 221 234 239 242 236 222 204 197 203 219 201 169 163 166 166 79 167 200 196 188 184 186
315 284 253 229 220 189 167 180 182 182 178 176 170 197 217 210 203 209 201 201 199 203 225 229 229 223 217 206 204 214 194 160 147 151 158 186 205 221 230 215 202 201 198
348 305 299 295 202 190 171 169 171 173 184 193 183 193 214 216 199 203 201 206 209 206 227 232 225 211 202 200 203 184 161 158 164 176 201 224 230 226 211 216 282 187 183
327 316 269 210 263 218 176 166 158 179 193 187 194 207 216 222 225 208 208 210 207 202 227 235 184 148 138 136 136 160 164 164 171 191 205 226 114 121 179 188 207 215 209
328 328 303 234 172 138 93 115 164 210 208 195 202 193 190 215 230 207 191 198 200 198 164 136 101 97 105 104 89 97 123 127 163 198 162 165 158 115 266 231 189 179 220
330 330 325 263 176 170 157 87 48 53 48 173 187 186 201 208 210 194 186 184 179 162 145 146 157 166 174 166 145 130 128 147 178 152 142 169 180 181 297 259 178 188 223
266 276 293 243 192 188 184 168 156 22 29 35 134 192 197 207 203 188 173 144 129 135 138 152 160 163 157 146 147 153 167 156 137 133 138 181 193 98 62 18 208 214 234
272 273 246 226 190 194 195 189 180 175 185 300 322 266 228 208 190 172 145 121 111 128 149 153 159 155 152 153 157 153 128 106 102 106 109 102 109 123 112 60 159 172 220
263 268 259 231 197 191 195 188 184 183 184 184 134 356 335 111 96 112 129 133 147 152 153 155 160 157 152 152 152 147 141 141 132 138 142 141 130 131 217 252 222 223 186
292 275 274 229 215 205 190 177 178 180 180 177 181 191 166 100 95 99 121 140 144 149 152 152 151 147 148 149 149 141 133 131 131 146 178 179 192 188 212 227 218 222 239
312 322 333 289 225 207 184 175 175 176 178 179 189 189 166 156 158 156 149 145 149 153 154 149 146 143 144 141 144 142 138 147 170 187 214 230 228 234 238 224 226 219 233
304 304 285 249 228 190 181 178 177 177 177 174 171 163 160 156 155 157 155 153 153 152 148 142 143 147 156 156 152 146 142 144 186 220 232 246 236 227 218 217 224 243 246
359 336 321 302 230 166 158 165 171 179 185 182 173 166 161 161 161 165 166 159 144 136 133 137 142 142 133 128 133 150 161 185 213 210 201 222 226 216 216 230 239 245 257
68 332 294 304 305 165 171 179 179 177 173 164 161 163 164 164 164 164 162 149 139 137 135 133 137 141 135 124 118 123 143 173 174 183 187 185 186 189 194 236 248 250 258
52 53 48 45 145 155 158 159 154 153 153 153 156 158 157 153 154 155 152 145 141 138 136 130 126 128 132 131 125 113 101 94 92 102 119 151 132 120 106 46 335 334 336
69 62 55 53 72 111 133 146 149 147 148 153 157 162 160 154 156 156 151 146 144 145 144 137 132 131 128 125 114 99 87 85 83 84 91 109 106 94 88 91 71 48 19
Height
1509 1511 1513 1514 1516 1517 1518 1519 1520 1521 1521 1522 1523 1523 1524 1524 1524 1524 1524 1525 1524 1524 1524 1524 1523 1523 1523 1523 1523 1523 1523 1523 1522 1522 1522 1522 1522 1522 1521 1521 1520 1520 1520
1506 1508 1509 1511 1512 1513 1514 1515 1517 1517 1518 1519 1519 1520 1521 1521 1521 1521 1521 1522 1522 1522 1521 1521 1521 1520 1520 1520 1520 1520 1520 1520 1519 1518 1519 1519 1519 1519 1519 1518 1518 1518 1518
1503 1505 1506 1507 1509 1510 1511 1512 1513 1514 1515 1516 1516 1517 1517 1518 1518 1518 1519 1519 1519 1519 1518 1518 1518 1518 1517 1517 1517 1516 1516 1516 1516 1516 1515 1516 1516 1516 1516 1516 1515 1515 1515
1501 1502 1503 1504 1505 1507 1509 1510 1510 1511 1512 1512 1513 1513 1514 1515 1515 1515 1516 1515 1515 1516 1516 1515 1515 1514 1514 1514 1514 1513 1513 1513 1513 1513 1513 1513 1513 1513 1513 1512 1512 1513 1513
1499 1499 1500 1501 1503 1504 1505 1506 1507 1508 1508 1509 1509 1510 1510 1511 1511 1512 1512 1512 1512 1512 1512 1512 1512 1511 1511 1510 1510 1510 1510 1510 1509 1509 1509 1509 1509 1509 1509 1509 1509 1510 1510
1496 1496 1498 1499 1500 1501 1502 1503 1503 1503 1504 1505 1505 1506 1506 1507 1507 1508 1508 1508 1508 1508 1508 1508 1508 1508 1507 1507 1506 1506 1506 1506 1506 1506 1505 1505 1505 1506 1506 1506 1507 1507 1507
1493 1494 1495 1496 1496 1498 1499 1500 1499 1499 1500 1500 1501 1502 1502 1503 1503 1504 1504 1505 1505 1505 1505 1505 1504 1504 1504 1503 1503 1503 1502 1502 1503 1503 1502 1502 1502 1502 1503 1503 1503 1503 1504
1490 1491 1491 1493 1493 1494 1495 1495 1496 1496 1496 1496 1496 1497 1498 1499 1499 1500 1500 1501 1501 1501 1502 1501 1501 1501 1500 1500 1500 1499 1499 1498 1498 1498 1498 1498 1499 1499 1499 1500 1500 1500 1501
1486 1487 1487 1489 1490 1491 1492 1492 1492 1493 1493 1493 1493 1493 1494 1494 1495 1495 1495 1496 1497 1497 1498 1498 1498 1498 1497 1497 1497 1496 1496 1495 1495 1495 1494 1494 1495 1495 1496 1496 1496 1496 1496
1484 1484 1484 1485 1486 1487 1488 1488 1489 1489 1489 1489 1489 1490 1490 1490 1491 1491 1491 1492 1493 1494 1494 1494 1494 1494 1494 1494 1493 1493 1492 1492 1492 1491 1491 1491 1491 1491 1491 1492 1492 1492 1492
1479 1480 1481 1482 1483 1483 1483 1484 1485 1485 1485 1485 1485 1486 1486 1487 1487 1487 1488 1488 1489 1489 1490 1490 1490 1490 1490 1490 1489 1489 1489 1489 1489 1488 1488 1487 1487 1487 1488 1488 1488 1489 1489
1477 1478 1478 1478 1478 1479 1480 1480 1481 1481 1481 1481 1480 1481 1482 1482 1483 1483 1484 1484 1485 1485 1485 1486 1486 1486 1486 1486 1486 1486 1486 1486 1485 1485 1484 1484 1484 1484 1484 1484 1484 1485 1485
1474 1474 1475 1475 1474 1475 1475 1475 1476 1476 1477 1477 1477 1477 1477 1478 1478 1480 1481 1481 1481 1481 1481 1482 1483 1483 1483 1482 1482 1482 1482 1482 1482 1481 1481 1480 1481 1481 1481 1481 1481 1481 1482
1471 1471 1471 1471 1471 1471 1471 1471 1471 1472 1473 1473 1473 1473 1473 1474 1474 1476 1476 1477 1477 1477 1477 1478 1479 1479 1479 1479 1479 1479 1479 1479 1479 1478 1478 1478 1478 1477 1477 1477 1477 1477 1478
1468 1468 1467 1467 1467 1467 1467 1467 1467 1469 1469 1469 1470 1470 1470 1470 1471 1472 1473 1473 1473 1473 1474 1474 1474 1475 1475 1475 1475 1475 1475 1476 1476 1475 1475 1475 1475 1474 1474 1474 1474 1474 1474
1465 1465 1464 1463 1463 1463 1462 1462 1463 1465 1465 1465 1466 1467 1466 1467 1468 1468 1469 1469 1469 1470 1470 1470 1470 1470 1470 1471 1471 1471 1471 1472 1472 1472 1472 1472 1471 1471 1471 1470 1470 1471 1471
1462 1461 1460 1460 1460 1459 1459 1459 1459 1460 1461 1461 1462 1463 1463 1464 1464 1465 1465 1466 1466 1466 1466 1466 1466 1467 1467 1468 1468 1468 1468 1469 1470 1469 1469 1469 1469 1468 1468 1467 1467 1467 1468
1459 1458 1457 1456 1456 1456 1456 1456 1456 1456 1457 1457 1458 1459 1460 1461 1461 1461 1462 1462 1462 1463 1462 1462 1463 1464 1465 1465 1465 1466 1466 1466 1466 1466 1466 1466 1465 1465 1465 1465 1464 1465 1465
1455 1454 1454 1453 1453 1452 1453 1453 1453 1454 1454 1454 1455 1456 1457 1458 1458 1458 1458 1459 1459 1459 1459 1460 1461 1462 1462 1463 1463 1463 1463 1463 1463 1463 1463 1463 1462 1462 1462 1462 1462 1463 1463
1452 1451 1450 1449 1449 1449 1449 1449 1450 1451 1451 1452 1452 1453 1454 1455 1455 1455 1455 1456 1456 1456 1457 1458 1458 1459 1459 1460 1461 1461 1461 1461 1461 1460 1460 1460 1460 1460 1460 1460 1460 1460 1460
1449 1448 1447 1446 1446 1446 1446 1446 1447 1448 1449 1449 1450 1450 1451 1452 1452 1452 1452 1453 1453 1454 1455 1455 1456 1456 1457 1458 1458 1458 1458 1458 1458 1458 1458 1458 1458 1458 1458 1457 1458 1458 1458
1447 1446 1445 1444 1444 1444 1443 1444 1445 1445 1446 1446 1447 1448 1449 1449 1450 1450 1450 1451 1451 1452 1453 1454 1454 1454 1455 1455 1455 1455 1455 1455 1455 1455 1455 1455 1455 1455 1455 1455 1455 1455 1456
1444 1443 1442 1442 1441 1441 1441 1441 1442 1442 1443 1443 1444 1445 1445 1446 1447 1447 1447 1448 1449 1450 1451 1452 1452 1452 1452 1452 1452 1452 1452 1452 1452 1452 1452 1452 1452 1452 1452 1453 1453 1453 1453
1442 1441 1440 1440 1439 1439 1439 1439 1440 1440 1440 1440 1441 1442 1442 1443 1444 1444 1445 1446 1447 1448 1448 1449 1449 1449 1449 1449 1449 1449 1449 1449 1449 1449 1449 1449 1449 1449 1450 1450 1450 1450 1450
1441 1440 1439 1438 1438 1438 1438 1437 1437 1437 1437 1438 1439 1439 1440 1440 1441 1441 1442 1443 1444 1445 1446 1446 1446 1446 1446 1446 1446 1446 1446 1446 1446 1447 1447 1447 1447 1447 1447 1447 1447 1447 1447
1441 1440 1439 1438 1437 1437 1436 1436 1436 1435 1435 1436 1436 1437 1437 1438 1438 1439 1440 1440 1441 1442 1443 1443 1443 1443 1444 1444 1444 1444 1444 1444 1444 1444 1444 1444 1444 1444 1444 1444 1445 1444 1444